Location: Crocus Hill
(18.2167°N, 63.0667°W)
Time: 03:27:17
(UTC+00:00)

GPS 2-15 Rocket1 - Pass Details

Date: 26 January 2020
Orbit: 624 x 675 km, 19.8° (Epoch: 18 February)

Event Time Altitude Azimuth Distance (km) Brightness Sun altitude
Exits shadow 08:55:32 64° 61° (ENE) 688 3.3 -26.2°
Drops below altitude 10° 08:59:33 10° 81° (E) 1,981 6.5 -25.3°
Sets 09:01:54 0° 83° (E) 2,884 7.6 -24.7°
